YACHTS Weather Reports


time (UTC)temp
F
wind
direction
speed
knots
gust
knots
rain 1hr
in
rain 24hr
in
rain mn
in
humidity
%
barometer
mb
20260507213215 54 18 3.5 10.4 0.00 0.00 0.00 76 1019.6
20260507212702 54 5 4.3 10.4 0.00 0.00 0.00 75 1019.6
20260507211637 54 316 2.6 8.7 0.00 0.00 0.00 75 1019.7
20260507211123 53 312 2.6 10.4 0.00 0.00 0.00 77 1019.6
20260507210610 53 19 4.3 10.4 0.00 0.00 0.00 76 1019.5
20260507210057 53 316 6.1 10.4 0.00 0.00 0.00 75 1019.5
20260507205544 54 35 3.5 9.6 0.00 0.00 0.00 76 1019.5
20260507205031 54 338 4.3 9.6 0.00 0.00 0.00 75 1019.4
20260507204518 54 303 4.3 8.7 0.00 0.00 0.00 76 1019.4
20260507204006 54 42 3.5 11.3 0.00 0.00 0.00 76 1019.4
20260507203452 54 39 0.9 11.3 0.00 0.00 0.00 76 1019.5
20260507202939 53 317 4.3 11.3 0.00 0.00 0.00 76 1019.5
20260507202426 53 313 6.1 10.4 0.00 0.00 0.00 76 1019.5
20260507201913 53 64 6.1 10.4 0.00 0.00 0.00 76 1019.5
20260507201400 53 46 3.5 10.4 0.00 0.00 0.00 77 1019.6
20260507200847 53 40 4.3 10.4 0.00 0.00 0.00 77 1019.6
20260507200335 53 23 5.2 10.4 0.00 0.00 0.00 76 1019.6
20260507195821 53 26 4.3 8.7 0.00 0.00 0.00 76 1019.7
20260507195308 53 316 3.5 7.8 0.00 0.00 0.00 77 1019.8
20260507194755 53 35 4.3 11.3 0.00 0.00 0.00 77 1019.8
20260507194242 53 47 5.2 11.3 0.00 0.00 0.00 77 1019.9
20260507193729 53 308 5.2 11.3 0.00 0.00 0.00 77 1019.8
20260507193216 53 12 3.5 10.4 0.00 0.00 0.00 77 1019.9
20260507192703 53 42 4.3 7.8 0.00 0.00 0.00 77 1020.0
20260507192151 53 39 3.5 9.6 0.00 0.00 0.00 78 1020.0
20260507191637 53 303 4.3 9.6 0.00 0.00 0.00 78 1020.0
20260507191125 53 53 4.3 9.6 0.00 0.00 0.00 78 1020.1
20260507190058 53 289 4.3 11.3 0.00 0.00 0.00 78 1020.1
20260507184519 54 15 5.2 9.6 0.00 0.00 0.00 78 1020.1
20260507184006 53 330 5.2 9.6 0.00 0.00 0.00 78 1020.1
20260507183453 53 70 2.6 8.7 0.00 0.00 0.00 80 1020.1
20260507182940 53 61 3.5 8.7 0.00 0.00 0.00 79 1020.2
20260507182427 53 357 2.6 8.7 0.00 0.00 0.00 79 1020.1
20260507181914 53 343 5.2 8.7 0.00 0.00 0.00 79 1020.3
20260507181401 53 0 0.0 10.4 0.00 0.00 0.00 80 1020.2
20260507180848 53 302 1.7 10.4 0.00 0.00 0.00 81 1020.2
20260507180335 53 331 6.1 10.4 0.00 0.00 0.00 80 1020.3
20260507175822 53 58 1.7 8.7 0.00 0.00 0.00 81 1020.3
20260507175309 53 310 5.2 8.7 0.00 0.00 0.00 81 1020.3
20260507174756 52 334 3.5 8.7 0.00 0.00 0.00 81 1020.3
20260507174245 52 15 3.5 8.7 0.00 0.00 0.00 82 1020.3
20260507173730 52 357 4.3 8.7 0.00 0.00 0.00 82 1020.3
20260507173217 52 291 4.3 8.7 0.00 0.00 0.00 82 1020.3
20260507172704 52 343 3.5 7.8 0.00 0.00 0.00 83 1020.3
20260507172152 52 78 0.0 7.8 0.00 0.00 0.00 83 1020.3
20260507171638 52 320 3.5 7.8 0.00 0.00 0.00 83 1020.4
20260507171125 52 319 5.2 7.8 0.00 0.00 0.00 83 1020.5
20260507170612 52 334 2.6 7.8 0.00 0.00 0.00 84 1020.6
20260507170059 52 25 0.0 7.0 0.00 0.00 0.00 84 1020.5
20260507165546 52 102 0.9 7.0 0.00 0.00 0.00 84 1020.5
20260507165033 52 338 1.7 6.1 0.00 0.00 0.00 85 1020.7
20260507164520 51 249 0.0 6.1 0.00 0.00 0.00 85 1020.6
20260507164007 51 9 0.0 6.1 0.00 0.00 0.00 85 1020.6
20260507162941 51 357 0.9 8.7 0.00 0.00 0.00 85 1020.7
20260507162428 51 0 0.0 8.7 0.00 0.00 0.00 86 1020.5
20260507161915 51 152 3.5 7.8 0.00 0.00 0.00 86 1020.6
20260507161402 51 0 0.0 7.0 0.00 0.00 0.00 86 1020.6
20260507160849 51 310 0.0 5.2 0.00 0.00 0.00 86 1020.6
20260507160336 51 0 0.0 5.2 0.00 0.00 0.00 87 1020.5
20260507155823 51 0 0.0 4.3 0.00 0.00 0.00 87 1020.5
20260507155310 51 32 0.0 3.5 0.00 0.00 0.00 87 1020.5
20260507154757 51 309 0.0 3.5 0.00 0.00 0.00 87 1020.5
20260507154244 51 312 0.0 3.5 0.00 0.00 0.00 87 1020.7
20260507153731 51 319 0.0 4.3 0.00 0.00 0.00 87 1020.6
20260507153218 51 299 1.7 4.3 0.00 0.00 0.00 87 1020.7
20260507152705 51 323 1.7 4.3 0.00 0.00 0.00 87 1020.7
20260507152152 51 324 0.0 2.6 0.00 0.00 0.00 87 1020.7
20260507151639 51 0 0.0 1.7 0.00 0.00 0.00 88 1020.7
20260507151126 51 57 0.0 1.7 0.00 0.00 0.00 88 1020.6
20260507150613 51 0 0.0 0.0 0.00 0.00 0.00 88 1020.6
20260507145547 51 0 0.0 0.0 0.00 0.00 0.00 88 1020.7
20260507145034 51 0 0.0 0.0 0.00 0.00 0.00 88 1020.6
20260507143455 51 0 0.0 0.0 0.00 0.00 0.00 89 1020.7
20260507142942 51 0 0.0 0.0 0.00 0.00 0.00 89 1020.6
20260507142429 51 0 0.0 0.0 0.00 0.00 0.00 88 1020.6
20260507141916 51 0 0.0 0.0 0.00 0.00 0.00 89 1020.6
20260507141403 51 0 0.0 0.0 0.00 0.00 0.00 89 1020.5
20260507140850 51 0 0.0 0.0 0.00 0.00 0.00 88 1020.6
20260507140337 51 0 0.0 0.0 0.00 0.00 0.00 88 1020.5
20260507135824 51 0 0.0 0.0 0.00 0.00 0.00 88 1020.6
20260507135311 51 0 0.0 0.0 0.00 0.00 0.00 88 1020.5
20260507134758 51 0 0.0 0.0 0.00 0.00 0.00 88 1020.5
20260507134245 51 0 0.0 0.0 0.00 0.00 0.00 88 1020.4
20260507133732 51 0 0.0 0.0 0.00 0.00 0.00 88 1020.4
20260507133219 51 0 0.0 0.0 0.00 0.00 0.00 88 1020.4
20260507132706 51 0 0.0 0.0 0.00 0.00 0.00 88 1020.4
20260507132153 51 0 0.0 0.0 0.00 0.00 0.00 88 1020.4
20260507131640 51 0 0.0 0.0 0.00 0.00 0.00 88 1020.4
20260507131127 51 0 0.0 0.0 0.00 0.00 0.00 88 1020.4
20260507130614 51 0 0.0 0.0 0.00 0.00 0.00 88 1020.4
20260507130101 51 0 0.0 0.0 0.00 0.00 0.00 88 1020.4
20260507125548 51 0 0.0 0.0 0.00 0.00 0.00 88 1020.3
20260507125035 51 0 0.0 0.0 0.00 0.00 0.00 88 1020.4
20260507124522 51 0 0.0 0.0 0.00 0.00 0.00 88 1020.3
20260507124009 51 0 0.0 0.0 0.00 0.00 0.00 88 1020.3
20260507123456 51 0 0.0 0.0 0.00 0.00 0.00 88 1020.3
20260507122943 51 0 0.0 0.0 0.00 0.00 0.00 88 1020.3
20260507122430 51 0 0.0 0.0 0.00 0.00 0.00 88 1020.3
20260507121404 51 0 0.0 0.0 0.00 0.00 0.00 88 1020.4
20260507120851 51 0 0.0 0.0 0.00 0.00 0.00 88 1020.4
20260507120338 51 0 0.0 0.0 0.00 0.00 0.00 88 1020.4
20260507115825 51 0 0.0 0.0 0.00 0.00 0.00 88 1020.5
20260507115312 51 0 0.0 0.0 0.00 0.00 0.00 88 1020.6
20260507114759 51 0 0.0 0.0 0.00 0.00 0.00 88 1020.6
20260507114246 51 0 0.0 0.0 0.00 0.00 0.00 88 1020.7
20260507113733 51 0 0.0 0.0 0.00 0.00 0.00 88 1020.7
20260507113220 51 0 0.0 0.0 0.00 0.00 0.00 88 1020.6
20260507112707 51 0 0.0 0.0 0.00 0.00 0.00 88 1020.6
20260507112155 51 0 0.0 0.0 0.00 0.00 0.00 88 1020.6
20260507111641 51 0 0.0 0.0 0.00 0.00 0.00 88 1020.6
20260507111219 51 0 0.0 0.0 0.00 0.00 0.00 88 1020.8
20260507111128 51 0 0.0 0.0 0.00 0.00 0.00 88 1020.8
20260507110615 51 0 0.0 0.0 0.00 0.00 0.00 88 1020.8
20260507105549 51 0 0.0 0.0 0.00 0.00 0.00 88 1020.8
20260507105036 51 0 0.0 0.0 0.00 0.00 0.00 88 1020.8
20260507104010 51 0 0.0 0.0 0.00 0.00 0.00 88 1020.9
20260507103456 51 0 0.0 0.0 0.00 0.00 0.00 88 1020.8
20260507102944 51 0 0.0 0.0 0.00 0.00 0.00 88 1020.9
20260507102430 51 0 0.0 6.1 0.00 0.00 0.00 88 1020.9
20260507101918 51 0 0.0 6.1 0.00 0.00 0.00 88 1020.9
20260507100852 51 0 0.0 1.7 0.00 0.00 0.00 89 1020.9
20260507100338 51 0 0.0 0.0 0.00 0.00 0.00 89 1021.0
20260507095825 51 0 0.0 0.0 0.00 0.00 0.00 89 1021.1
20260507095312 51 0 0.0 0.0 0.00 0.00 0.00 89 1021.1
20260507094759 51 0 0.0 0.0 0.00 0.00 0.00 89 1021.1
20260507093733 51 0 0.0 4.3 0.00 0.00 0.00 89 1021.2
20260507093220 51 67 0.0 4.3 0.00 0.00 0.00 89 1021.2
20260507092707 51 0 0.0 0.0 0.00 0.00 0.00 89 1021.3
20260507092154 51 0 0.0 0.0 0.00 0.00 0.00 89 1021.3
20260507091641 51 67 0.0 6.1 0.00 0.00 0.00 89 1021.4
20260507091128 51 0 0.0 6.1 0.00 0.00 0.00 89 1021.5
20260507090615 51 96 0.9 6.1 0.00 0.00 0.00 89 1021.5
20260507085549 51 0 0.0 4.3 0.00 0.00 0.00 89 1021.5
20260507085036 51 0 0.0 4.3 0.00 0.00 0.00 89 1021.6
20260507084523 51 0 0.0 0.0 0.00 0.00 0.00 89 1021.6
20260507084010 51 0 0.0 0.0 0.00 0.00 0.00 89 1021.6
20260507083457 51 0 0.0 0.0 0.00 0.00 0.00 89 1021.6
20260507082945 51 0 0.0 0.0 0.00 0.00 0.00 89 1021.6
20260507082431 51 0 0.0 0.0 0.00 0.00 0.00 89 1021.5
20260507081918 51 0 0.0 0.0 0.00 0.00 0.00 89 1021.6
20260507081405 51 0 0.0 0.0 0.00 0.00 0.00 89 1021.5
20260507080852 51 0 0.0 0.0 0.00 0.00 0.00 89 1021.6
20260507080339 51 0 0.0 0.0 0.00 0.00 0.00 89 1021.6
20260507075826 51 0 0.0 0.0 0.00 0.00 0.00 89 1021.7
20260507075313 51 0 0.0 0.0 0.00 0.00 0.00 89 1021.6
20260507074801 51 0 0.0 0.0 0.00 0.00 0.00 89 1021.6
20260507074247 51 0 0.0 0.0 0.00 0.00 0.00 89 1021.6
20260507073734 51 0 0.0 0.0 0.00 0.00 0.00 89 1021.7
20260507073221 51 0 0.0 0.0 0.00 0.00 0.00 89 1021.7
20260507072156 51 0 0.0 0.0 0.00 0.00 0.00 89 1021.7
20260507071642 51 0 0.0 0.0 0.00 0.00 0.00 89 1021.7
20260507071129 51 0 0.0 0.0 0.00 0.00 0.00 88 1021.7
20260507065550 51 0 0.0 0.0 0.00 0.00 0.00 88 1021.7
20260507065037 51 0 0.0 0.0 0.00 0.00 0.00 88 1021.7
20260507064525 51 0 0.0 0.0 0.00 0.00 0.00 88 1021.8
20260507064011 51 0 0.0 0.0 0.00 0.00 0.00 88 1021.8
20260507063458 51 0 0.0 0.0 0.00 0.00 0.00 88 1021.8
20260507062945 51 0 0.0 0.0 0.00 0.00 0.00 88 1021.8
20260507062432 51 0 0.0 0.0 0.00 0.00 0.00 88 1021.9
20260507061920 51 0 0.0 0.0 0.00 0.00 0.00 88 1021.9
20260507061406 51 0 0.0 0.0 0.00 0.00 0.00 88 1021.8
20260507060853 51 0 0.0 0.0 0.00 0.00 0.00 88 1021.9
20260507060340 51 0 0.0 0.0 0.00 0.00 0.00 88 1021.9
20260507055827 51 0 0.0 0.0 0.00 0.00 0.00 88 1022.0
20260507055314 51 0 0.0 0.0 0.00 0.00 0.00 88 1022.0
20260507054803 51 0 0.0 0.0 0.00 0.00 0.00 88 1022.0
20260507054249 51 0 0.0 0.0 0.00 0.00 0.00 88 1022.0
20260507053735 51 0 0.0 0.0 0.00 0.00 0.00 88 1022.1
20260507053222 51 0 0.0 0.0 0.00 0.00 0.00 88 1022.1
20260507052709 51 0 0.0 0.0 0.00 0.00 0.00 88 1022.1
20260507052156 51 0 0.0 0.0 0.00 0.00 0.00 88 1022.1
20260507051643 51 0 0.0 0.0 0.00 0.00 0.00 88 1022.1
20260507051130 51 0 0.0 0.0 0.00 0.00 0.00 87 1022.1
20260507050619 51 0 0.0 0.0 0.00 0.00 0.00 87 1022.1
20260507050104 51 0 0.0 0.0 0.00 0.00 0.00 87 1022.2
20260507045551 51 0 0.0 0.0 0.00 0.00 0.00 87 1022.1
20260507045038 51 0 0.0 0.0 0.00 0.00 0.00 87 1022.1
20260507044525 51 0 0.0 0.0 0.00 0.00 0.00 87 1022.1
20260507044012 51 0 0.0 0.0 0.00 0.00 0.00 87 1022.1
20260507043459 52 0 0.0 0.0 0.00 0.00 0.00 87 1022.1
20260507042433 52 0 0.0 0.0 0.00 0.00 0.00 87 1022.0
20260507041920 52 0 0.0 0.0 0.00 0.00 0.00 87 1022.0
20260507041407 52 0 0.0 0.0 0.00 0.00 0.00 87 1022.0
20260507040854 52 0 0.0 0.0 0.00 0.00 0.00 87 1022.0
20260507040341 52 0 0.0 0.0 0.00 0.00 0.00 87 1022.0
20260507035828 52 0 0.0 0.0 0.00 0.00 0.00 87 1022.0
20260507035315 52 0 0.0 0.0 0.00 0.00 0.00 87 1021.9
20260507034802 52 0 0.0 0.0 0.00 0.00 0.00 87 1022.0
20260507034249 52 0 0.0 0.0 0.00 0.00 0.00 87 1022.0
20260507033736 52 0 0.0 0.0 0.00 0.00 0.00 87 1022.0
20260507033223 52 0 0.0 0.0 0.00 0.00 0.00 87 1022.0
20260507032710 52 0 0.0 0.0 0.00 0.00 0.00 87 1022.0
20260507032157 52 0 0.0 0.0 0.00 0.00 0.00 87 1022.0
20260507031644 52 0 0.0 0.0 0.00 0.00 0.00 87 1021.9
20260507031131 52 0 0.0 0.0 0.00 0.00 0.00 87 1021.9
20260507030618 52 0 0.0 0.0 0.00 0.00 0.00 87 1021.8
20260507030105 52 0 0.0 0.0 0.00 0.00 0.00 87 1021.8
20260507025552 52 0 0.0 0.0 0.00 0.00 0.00 87 1021.8
20260507025039 52 0 0.0 0.0 0.00 0.00 0.00 87 1021.8
20260507024526 52 0 0.0 0.0 0.00 0.00 0.00 87 1021.8
20260507024015 52 0 0.0 0.0 0.00 0.00 0.00 87 1021.7
20260507023500 52 0 0.0 0.0 0.00 0.00 0.00 87 1021.7
20260507022947 52 0 0.0 0.0 0.00 0.00 0.00 87 1021.8
20260507022434 52 0 0.0 0.0 0.00 0.00 0.00 87 1021.6
20260507021921 52 0 0.0 0.0 0.00 0.00 0.00 87 1021.7
20260507021408 52 0 0.0 0.0 0.00 0.00 0.00 87 1021.7
20260507020855 52 0 0.0 0.0 0.00 0.00 0.00 87 1021.7
20260507020342 52 0 0.0 0.0 0.00 0.00 0.00 87 1021.8
20260507015829 52 0 0.0 0.0 0.00 0.00 0.00 87 1021.9
20260507015316 52 0 0.0 0.0 0.00 0.00 0.00 87 1021.9
20260507014803 52 0 0.0 0.0 0.00 0.00 0.00 87 1022.0
20260507014250 52 0 0.0 0.0 0.00 0.00 0.00 87 1022.0
20260507013737 52 0 0.0 0.0 0.00 0.00 0.00 87 1022.0
20260507013224 52 0 0.0 0.0 0.00 0.00 0.00 87 1022.0
20260507012711 52 0 0.0 0.0 0.00 0.00 0.00 87 1022.1
20260507012158 52 0 0.0 0.0 0.00 0.00 0.00 87 1022.1
20260507011132 52 0 0.0 1.7 0.00 0.00 0.00 86 1022.1
20260507010619 52 0 0.0 1.7 0.00 0.00 0.00 87 1022.1
20260507010106 52 266 0.0 1.7 0.00 0.00 0.00 87 1022.2
20260507005553 52 0 0.0 0.0 0.00 0.00 0.00 87 1022.1
20260507004015 51 0 0.0 0.0 0.00 0.00 0.00 87 1022.3
20260507003501 52 0 0.0 3.5 0.00 0.00 0.00 86 1022.3
20260507002949 51 0 0.0 3.5 0.00 0.00 0.00 86 1022.3
20260507002435 51 261 0.0 3.5 0.00 0.00 0.00 86 1022.2
20260507001922 51 0 0.0 0.0 0.00 0.00 0.00 87 1022.2
20260507001409 52 0 0.0 0.0 0.00 0.00 0.00 86 1022.3
20260507000856 52 0 0.0 0.0 0.00 0.00 0.00 86 1022.2
20260507000343 51 0 0.0 3.5 0.00 0.00 0.00 86 1022.3
20260506235830 51 0 0.0 3.5 0.00 0.00 0.00 86 1022.4
20260506235317 52 0 0.0 3.5 0.00 0.00 0.00 86 1022.4
20260506234804 51 0 0.0 1.7 0.00 0.00 0.00 86 1022.3
20260506234251 52 0 0.0 1.7 0.00 0.00 0.00 86 1022.4
20260506233738 52 246 0.0 1.7 0.00 0.00 0.00 86 1022.5
20260506233225 52 0 0.0 6.1 0.00 0.00 0.00 86 1022.5
20260506232712 52 0 0.0 6.1 0.00 0.00 0.00 86 1022.4
20260506232159 52 291 4.3 6.1 0.00 0.00 0.00 85 1022.5
20260506231646 52 306 0.0 6.1 0.00 0.00 0.00 86 1022.5
20260506231133 51 280 3.5 6.1 0.00 0.00 0.00 85 1022.5
20260506230107 52 298 5.2 6.1 0.00 0.00 0.00 85 1022.6
20260506225554 52 299 0.9 6.1 0.00 0.00 0.00 85 1022.6
20260506225041 52 289 4.3 6.1 0.00 0.00 0.00 85 1022.6
20260506224528 52 284 5.2 6.1 0.00 0.00 0.00 85 1022.6
20260506224015 52 296 4.3 6.1 0.00 0.00 0.00 85 1022.7
20260506223502 52 291 4.3 7.0 0.00 0.00 0.00 85 1022.7
20260506222949 52 282 4.3 7.0 0.00 0.00 0.00 85 1022.8
20260506222436 52 309 4.3 7.0 0.00 0.00 0.00 85 1022.7
20260506221923 53 308 5.2 7.0 0.00 0.00 0.00 85 1022.7
20260506221410 53 312 5.2 6.1 0.00 0.00 0.00 85 1022.7
20260506220857 52 285 3.5 7.0 0.00 0.00 0.00 85 1022.8
20260506220344 53 295 2.6 7.0 0.00 0.00 0.00 85 1022.8
20260506215318 53 261 1.7 7.0 0.00 0.00 0.00 85 1022.7
20260506214805 53 273 0.0 7.0 0.00 0.00 0.00 85 1022.6
20260506214251 53 305 2.6 7.0 0.00 0.00 0.00 85 1022.7
20260506213739 52 0 0.0 6.1 0.00 0.00 0.00 86 1022.7